When you browse on this site, cookies collect data to enhance your experience and personalize the content and advertising you see.
Visit our Privacy Policy to learn more. By continuing to use the site, you agree to this use of cookies and data.
  • In Spain
  • List of Countries
  • For 7 days
  • Water Temperature
  • Satellite Maps
  • Weather Map
  • Weather Widgets
  • user-avatar
    Login

    Hourly Weather Andryushkovo

    Today, 25 June, Tuesday

    Time Temperature Precipitation Wind Pressure Humidity
    00:00 +15°C° 0 mm 2 mps 749 mmHg 73%
    01:00 +15°C° 0 mm 2 mps 749 mmHg 74%
    02:00 +13°C° 0 mm 3 mps 749 mmHg 75%
    03:00 +12°C° 0 mm 3 mps 750 mmHg 77%
    04:00 +14°C° 0 mm 2 mps 750 mmHg 77%
    05:00 +14°C° 0 mm 2 mps 750 mmHg 77%
    06:00 +15°C° 0 mm 2 mps 751 mmHg 77%
    07:00 +16°C° 0 mm 2 mps 751 mmHg 73%
    08:00 +17°C° 0 mm 2 mps 751 mmHg 69%
    09:00 +19°C° 0 mm 2 mps 751 mmHg 65%
    10:00 +20°C° 0 mm 3 mps 751 mmHg 60%
    11:00 +21°C° 0 mm 3 mps 751 mmHg 56%
    12:00 +22°C° 0 mm 4 mps 751 mmHg 52%
    13:00 +22°C° 0 mm 4 mps 751 mmHg 51%
    14:00 +22°C° 0 mm 4 mps 751 mmHg 50%
    15:00 +22°C° 0 mm 4 mps 751 mmHg 50%
    16:00 +22°C° 0 mm 3 mps 751 mmHg 55%
    17:00 +21°C° 0 mm 2 mps 751 mmHg 60%
    18:00 +21°C° 0 mm 2 mps 751 mmHg 65%
    19:00 +19°C° 0 mm 2 mps 751 mmHg 68%
    20:00 +19°C° 0 mm 1 mps 751 mmHg 70%
    21:00 +16°C° 0 mm 1 mps 751 mmHg 73%
    22:00 +15°C° 0 mm 1 mps 751 mmHg 72%
    23:00 +15°C° 0 mm 1 mps 751 mmHg 72%

    Tomorrow, 26 June, Wednesday

    Time Temperature Precipitation Wind Pressure Humidity
    00:00 +14°C° 0 mm 1 mps 751 mmHg 71%
    01:00 +14°C° 0 mm 1 mps 751 mmHg 74%
    02:00 +13°C° 0 mm 1 mps 751 mmHg 76%
    03:00 +12°C° 0 mm 1 mps 751 mmHg 78%
    04:00 +13°C° 0 mm 1 mps 751 mmHg 79%
    05:00 +14°C° 0 mm 1 mps 751 mmHg 79%
    06:00 +15°C° 0 mm 1 mps 750 mmHg 80%
    07:00 +16°C° 0 mm 1 mps 750 mmHg 75%
    08:00 +18°C° 0 mm 2 mps 750 mmHg 70%
    09:00 +19°C° 0 mm 2 mps 750 mmHg 65%
    10:00 +20°C° 0 mm 2 mps 749 mmHg 62%
    11:00 +21°C° 0 mm 3 mps 749 mmHg 59%
    12:00 +22°C° 0 mm 3 mps 749 mmHg 56%
    13:00 +22°C° 0.2 mm 3 mps 748 mmHg 59%
    14:00 +23°C° 0.2 mm 2 mps 748 mmHg 62%
    15:00 +23°C° 0.2 mm 2 mps 748 mmHg 65%
    16:00 +21°C° 0.3 mm 2 mps 747 mmHg 68%
    17:00 +21°C° 0.3 mm 2 mps 746 mmHg 71%
    18:00 +21°C° 0.3 mm 2 mps 746 mmHg 74%
    19:00 +20°C° 0.2 mm 2 mps 745 mmHg 79%
    20:00 +18°C° 0.2 mm 3 mps 745 mmHg 84%
    21:00 +16°C° 0.2 mm 3 mps 744 mmHg 88%
    22:00 +16°C° 0 mm 3 mps 744 mmHg 89%
    23:00 +15°C° 0 mm 2 mps 743 mmHg 91%

    Day after tomorrow, 27 June, Thursday

    Time Temperature Precipitation Wind Pressure Humidity
    00:00 +15°C° 0 mm 2 mps 743 mmHg 92%
    01:00 +15°C° 0 mm 2 mps 742 mmHg 92%
    02:00 +15°C° 0 mm 2 mps 741 mmHg 92%
    03:00 +15°C° 0 mm 2 mps 740 mmHg 91%
    04:00 +14°C° 1.6 mm 3 mps 739 mmHg 93%
    05:00 +14°C° 1.6 mm 4 mps 738 mmHg 95%
    06:00 +14°C° 1.6 mm 4 mps 738 mmHg 96%
    07:00 +15°C° 2.4 mm 5 mps 737 mmHg 96%
    08:00 +15°C° 2.4 mm 5 mps 736 mmHg 95%
    09:00 +16°C° 2.4 mm 5 mps 735 mmHg 94%
    10:00 +16°C° 1.5 mm 6 mps 734 mmHg 94%
    11:00 +17°C° 1.5 mm 6 mps 733 mmHg 95%
    12:00 +19°C° 1.5 mm 6 mps 732 mmHg 95%
    13:00 +19°C° 0.8 mm 6 mps 732 mmHg 94%
    14:00 +20°C° 0.8 mm 7 mps 731 mmHg 93%
    15:00 +20°C° 0.8 mm 7 mps 730 mmHg 91%
    16:00 +21°C° 0.3 mm 7 mps 730 mmHg 91%
    17:00 +21°C° 0.3 mm 7 mps 729 mmHg 91%
    18:00 +21°C° 0.3 mm 7 mps 728 mmHg 90%
    19:00 +20°C° 0.2 mm 6 mps 728 mmHg 91%
    20:00 +19°C° 0.2 mm 6 mps 728 mmHg 92%
    21:00 +19°C° 0.2 mm 5 mps 728 mmHg 93%
    22:00 +16°C° 0 mm 5 mps 728 mmHg 93%
    23:00 +15°C° 0 mm 5 mps 728 mmHg 94%

    28 June, Friday

    Time Temperature Precipitation Wind Pressure Humidity
    00:00 +14°C° 0 mm 5 mps 727 mmHg 94%
    01:00 +13°C° 0 mm 5 mps 727 mmHg 94%
    02:00 +13°C° 0 mm 5 mps 727 mmHg 94%
    03:00 +12°C° 0 mm 5 mps 727 mmHg 94%
    04:00 +12°C° 0 mm 5 mps 727 mmHg 93%
    05:00 +11°C° 0 mm 6 mps 727 mmHg 92%
    06:00 +11°C° 0 mm 6 mps 727 mmHg 91%
    07:00 +11°C° 0.1 mm 6 mps 727 mmHg 91%
    08:00 +11°C° 0.1 mm 6 mps 726 mmHg 91%
    09:00 +11°C° 0.1 mm 7 mps 726 mmHg 91%
    10:00 +11°C° 0.1 mm 7 mps 726 mmHg 90%
    11:00 +13°C° 0.1 mm 6 mps 726 mmHg 89%
    12:00 +13°C° 0.1 mm 6 mps 726 mmHg 87%
    13:00 +13°C° 0.3 mm 6 mps 726 mmHg 89%
    14:00 +11°C° 0.3 mm 6 mps 726 mmHg 91%
    15:00 +11°C° 0.3 mm 6 mps 726 mmHg 93%
    16:00 +11°C° 0.2 mm 6 mps 726 mmHg 93%
    17:00 +11°C° 0.2 mm 7 mps 726 mmHg 93%
    18:00 +10°C° 0.2 mm 7 mps 726 mmHg 94%
    19:00 +10°C° 0.3 mm 6 mps 727 mmHg 94%
    20:00 +10°C° 0.3 mm 6 mps 727 mmHg 94%
    21:00 +10°C° 0.3 mm 6 mps 727 mmHg 94%
    22:00 +10°C° 0.4 mm 6 mps 727 mmHg 94%
    23:00 +10°C° 0.4 mm 6 mps 727 mmHg 94%

    29 June, Saturday

    Time Temperature Precipitation Wind Pressure Humidity
    00:00 +10°C° 0.4 mm 7 mps 728 mmHg 94%
    01:00 +9°C° 0 mm 6 mps 728 mmHg 93%
    02:00 +9°C° 0 mm 6 mps 728 mmHg 93%
    03:00 +8°C° 0 mm 6 mps 728 mmHg 92%
    04:00 +8°C° 0 mm 6 mps 728 mmHg 91%
    05:00 +8°C° 0 mm 6 mps 728 mmHg 89%
    06:00 +8°C° 0 mm 7 mps 728 mmHg 88%
    07:00 +8°C° 0 mm 7 mps 729 mmHg 85%
    08:00 +9°C° 0 mm 7 mps 729 mmHg 82%
    09:00 +9°C° 0 mm 6 mps 729 mmHg 79%
    10:00 +9°C° 0.1 mm 7 mps 730 mmHg 81%
    11:00 +8°C° 0.1 mm 7 mps 731 mmHg 83%
    12:00 +8°C° 0.1 mm 7 mps 731 mmHg 85%
    13:00 +8°C° 0.1 mm 7 mps 732 mmHg 86%
    14:00 +6°C° 0.1 mm 7 mps 732 mmHg 87%
    15:00 +7°C° 0.1 mm 6 mps 733 mmHg 88%
    16:00 +7°C° 0.4 mm 6 mps 733 mmHg 90%
    17:00 +7°C° 0.4 mm 6 mps 733 mmHg 92%
    18:00 +6°C° 0.4 mm 5 mps 733 mmHg 93%
    19:00 +6°C° 0.5 mm 5 mps 733 mmHg 94%
    20:00 +6°C° 0.5 mm 5 mps 734 mmHg 95%
    21:00 +7°C° 0.5 mm 5 mps 734 mmHg 96%
    22:00 +7°C° 0.6 mm 5 mps 734 mmHg 95%
    23:00 +7°C° 0.6 mm 5 mps 734 mmHg 95%

    30 June, Sunday

    Time Temperature Precipitation Wind Pressure Humidity
    00:00 +7°C° 0.6 mm 6 mps 734 mmHg 94%
    01:00 +7°C° 0.2 mm 5 mps 734 mmHg 94%
    02:00 +7°C° 0.2 mm 4 mps 734 mmHg 95%
    03:00 +8°C° 0.2 mm 3 mps 734 mmHg 95%
    04:00 +8°C° 0 mm 3 mps 735 mmHg 93%
    05:00 +7°C° 0 mm 4 mps 735 mmHg 92%
    06:00 +7°C° 0 mm 4 mps 735 mmHg 90%
    07:00 +8°C° 0 mm 4 mps 735 mmHg 85%
    08:00 +9°C° 0 mm 5 mps 736 mmHg 81%
    09:00 +10°C° 0 mm 5 mps 736 mmHg 76%
    10:00 +13°C° 0 mm 5 mps 737 mmHg 69%
    11:00 +14°C° 0 mm 5 mps 737 mmHg 62%
    12:00 +16°C° 0 mm 5 mps 737 mmHg 56%
    13:00 +16°C° 0.1 mm 5 mps 738 mmHg 58%
    14:00 +16°C° 0.1 mm 5 mps 738 mmHg 61%
    15:00 +17°C° 0.1 mm 4 mps 738 mmHg 63%
    16:00 +17°C° 0.1 mm 4 mps 738 mmHg 64%
    17:00 +17°C° 0.1 mm 3 mps 739 mmHg 65%
    18:00 +17°C° 0.1 mm 3 mps 739 mmHg 66%
    19:00 +14°C° 0 mm 3 mps 739 mmHg 69%
    20:00 +13°C° 0 mm 3 mps 739 mmHg 72%
    21:00 +12°C° 0 mm 2 mps 740 mmHg 75%
    22:00 +12°C° 0 mm 2 mps 740 mmHg 78%
    23:00 +10°C° 0 mm 2 mps 740 mmHg 81%
    Show more